Location: Carrer del Canonge
(41.4901°N, 2.2931°E)
Time: 18:19:26
(UTC+00:00)

SPOT 3 Rocket - Pass Details

Date: 25 June 2021
Orbit: 779 x 794 km, 98.7° (Epoch: 01 August)

Event Time Altitude Azimuth Distance (km) Brightness Sun altitude
Exits shadow 21:56:05 - 218° (SW) 2,738 6.1 -19.7°
Reaches altitude 10° 21:57:34 10° 230° (SW) 2,341 5.9 -19.8°
Maximum altitude 22:00:48 17° 269° (W) 1,927 5.9 -20.1°
Drops below altitude 10° 22:04:04 10° 308° (NW) 2,359 7.0 -20.4°
Sets 22:07:17 0° 329° (NNW) 3,296 8.4 -20.6°
